Location: Unspecified
(0.0000°N, 0.0000°E)
Time: 22:19:01
(UTC+02:00)

Cosmos 1626 Rocket - Visible Passes

Search period start: 29 May 2015 00:00
Search period end: 08 June 2015 00:00
Orbit: 605 x 631 km, 82.5° (Epoch: 28 May)

Date Brightness Start Highest point End Pass type
(mag) Time Alt. Az. Time Alt. Az. Time Alt. Az.
29 May 3.8 20:25:56 10° SSE 20:30:06 45° E 20:34:18 10° NNE visible
30 May 3.8 20:42:43 10° S 20:47:05 75° W 20:51:27 10° N visible
31 May 5.5 21:00:09 10° SSW 21:04:04 32° W 21:07:57 10° NNW visible
01 Jun 6.8 07:32:41 10° NE 07:34:53 14° E 07:37:21 10° ESE visible
01 Jun 6.6 21:18:38 10° WSW 21:21:08 14° W 21:23:24 10° NW visible
04 Jun 5.7 20:30:28 10° SSW 20:34:23 31° W 20:38:14 10° NNW visible
05 Jun 6.7 07:02:55 10° NE 07:05:11 14° E 07:07:43 10° ESE visible
05 Jun 6.7 20:49:00 10° WSW 20:51:27 14° W 20:53:37 10° NW visible
06 Jun 5.6 07:18:22 10° NNE 07:22:15 32° E 07:26:10 10° SSE visible
